Regional Weather Roundup
Issued by NWS

Home | Current Version | Previous Version | Graphics & Text | Print | Product List | Glossary Off
Versions: 1 2 3 4 5 6 7 8 9 10 11 12 13 14 15 16 17 18 19 20 21 22 23 24 25 26 27 28 29 30 31 32 33 34 35 36 37 38 39 40 41 42 43 44 45 46 47 48 49 50

000
ASUS43 KFSD 290702
RWRSD

WEATHER ROUNDUP FOR SOUTH DAKOTA
NATIONAL WEATHER SERVICE SIOUX FALLS SD
200 AM CDT SAT AUG 29 2015

NOTE: "FAIR" INDICATES FEW OR NO CLOUDS BELOW 12,000 FEET WITH NO
SIGNIFICANT WEATHER AND/OR OBSTRUCTIONS TO VISIBILITY.


SDZ001>005-009-010-012>017-290800-
NORTHWEST AND NORTH CENTRAL SOUTH DAKOTA

CITY           SKY/WX    TMP DP  RH WIND       PRES   REMARKS
BUFFALO          N/A     61  48  62 S6        29.98S
FAITH            N/A     69  53  56 SW7       30.00F
MOBRIDGE       CLEAR     68  68 100 SE9       29.93F
$$

SDZ012>016-024>037-041>051-057-063-072>074-290800-
SOUTHWEST AND SOUTH CENTRAL SOUTH DAKOTA

CITY           SKY/WX    TMP DP  RH WIND       PRES   REMARKS
RAPID CTY ARPT CLEAR     60  56  86 NW3       30.07F
PIERRE         CLEAR     66  63  90 S5        29.97F
CUSTER         CLEAR     56  47  71 NW5       30.24F
ELLSWORTH AFB  CLEAR     65  58  77 SW7       30.06F
PHILIP         CLEAR     63  61  93 W8        30.01F
PINE RIDGE     CLEAR     53  49  86 CALM      30.11S
WINNER         FAIR      67  61  81 S7        30.03F
$$

SDZ004>011-016>023-039-040-290800-
NORTHEAST SOUTH DAKOTA

CITY           SKY/WX    TMP DP  RH WIND       PRES   REMARKS
ABERDEEN       CLEAR     64  62  93 S8        29.97S
WATERTOWN      CLEAR     60  57  89 S8        30.02S
BROOKINGS      CLEAR     57  54  88 CALM      30.05S
$$

SDZ017-020-022-023-036>040-048>070-290800-
SOUTHEAST SOUTH DAKOTA

CITY           SKY/WX    TMP DP  RH WIND       PRES   REMARKS
SIOUX FALLS    CLEAR     55  54  96 CALM      30.03F
HURON          CLEAR     63  61  93 S10       30.00S
CHAMBERLAIN    CLEAR     61  61 100 SE5       30.02S
MITCHELL       CLEAR     62  60  93 S9        30.02F
YANKTON        CLEAR     55  55 100 NW3       30.03S
$$

ABBREVIATIONS USED IN REMARKS
   TC - TEMPERATURE IN CELSIUS
  WCI - WIND CHILL INDEX
   HX - HEAT INDEX
  VSB - VISIBILITY




USA.gov is the U.S. government's official web portal to all federal, state and local government web resources and services.